Location: Salamanca
(40.9670°N, 5.6500°W)
Time: 09:10:24
(UTC+01:00)

ISS - Visible Passes

Search period start: 24 February 2018 00:00
Search period end: 06 March 2018 00:00
Orbit: 402 x 407 km, 51.6° (Epoch: 24 February)

Date Brightness Start Highest point End Pass type
(mag) Time Alt. Az. Time Alt. Az. Time Alt. Az.
25 Feb -1.1 07:12:56 10° S 07:15:22 20° SE 07:17:50 10° E visible
26 Feb -0.5 06:22:55 10° SE 06:23:23 10° SE 06:23:51 10° ESE visible
27 Feb -2.9 07:04:02 10° SW 07:07:12 48° SE 07:10:22 10° ENE visible
28 Feb -1.8 06:13:52 20° SSE 06:15:05 25° SE 06:17:49 10° ENE visible
01 Mar -0.5 05:24:11 11° ESE 05:24:11 11° ESE 05:24:38 10° E visible
01 Mar -3.9 06:56:52 18° WSW 06:59:06 68° NW 07:02:23 10° NE visible
02 Mar -3.4 06:07:02 60° ESE 06:07:02 60° ESE 06:10:06 10° ENE visible
03 Mar -0.5 05:17:04 14° ENE 05:17:04 14° ENE 05:17:37 10° ENE visible
03 Mar -2.8 06:49:44 23° WNW 06:51:07 33° NNW 06:54:08 10° NE visible
04 Mar -2.7 05:59:38 39° NNE 05:59:38 39° NNE 06:01:58 10° NE visible
05 Mar -0.3 05:09:28 12° NE 05:09:28 12° NE 05:09:42 10° NE visible
05 Mar -2.0 06:42:07 17° NW 06:43:13 20° NNW 06:45:45 10° NNE visible
